This is the latest recevied weather packets stored in our database for station/object K1ZK-13. If no packets are shown the sender has not sent any weather packets the latest 10 day(s).
| Time | Temp. | Humidity | Pressure | Rain* | Wind** | Luminosity | Snow |
|---|---|---|---|---|---|---|---|
| 1777821274 | 8.33° C | 55% | 1010.7 hPa | 0 mm | - | 206 W/m² | - |
| 1777820971 | 8.33° C | 52% | 1010.8 hPa | 0 mm | - | 233 W/m² | - |
| 1777820667 | 8.89° C | 50% | 1010.8 hPa | 0 mm | - | 263 W/m² | - |
| 1777820363 | 9.44° C | 53% | 1010.7 hPa | 0 mm | - | 348 W/m² | - |
| 1777820061 | 10.56° C | 52% | 1011 hPa | 0 mm | - | 478 W/m² | - |
| 1777819758 | 10° C | 59% | 1010.8 hPa | 0 mm | - | 495 W/m² | - |
| 1777819456 | 8.89° C | 57% | 1011 hPa | 0 mm | - | 711 W/m² | - |
| 1777819154 | 8.89° C | 60% | 1011 hPa | 0 mm | - | 311 W/m² | - |
| 1777818850 | 8.33° C | 61% | 1011 hPa | 0 mm | - | 322 W/m² | - |
| 1777818546 | 8.89° C | 60% | 1011 hPa | 0 mm | - | 321 W/m² | - |
| 1777818244 | 9.44° C | 59% | 1011 hPa | 0 mm | - | 384 W/m² | - |
| 1777817939 | 9.44° C | 62% | 1011.1 hPa | 0 mm | - | 596 W/m² | - |
| 1777817637 | 9.44° C | 60% | 1011.1 hPa | 0 mm | - | 640 W/m² | - |
| 1777817333 | 8.89° C | 62% | 1011.2 hPa | 0 mm | - | 495 W/m² | - |
| 1777817031 | 8.89° C | 62% | 1011.1 hPa | 0 mm | - | 484 W/m² | - |
| 1777816726 | 8.89° C | 63% | 1011.2 hPa | 0 mm | - | 532 W/m² | - |
| 1777816424 | 8.33° C | 64% | 1011.2 hPa | 0 mm | - | 529 W/m² | - |
| 1777816122 | 8.33° C | 65% | 1011.1 hPa | 0 mm | - | 450 W/m² | - |
| 1777815819 | 8.33° C | 63% | 1011.3 hPa | 0 mm | - | 477 W/m² | - |
| 1777815516 | 7.78° C | 62% | 1011.3 hPa | 0 mm | - | 500 W/m² | - |
| 1777815214 | 7.78° C | 65% | 1011.4 hPa | 0 mm | - | 422 W/m² | - |
| 1777814910 | 7.78° C | 64% | 1011.4 hPa | 0 mm | - | 314 W/m² | - |
| 1777814607 | 7.78° C | 65% | 1011.5 hPa | 0 mm | - | 340 W/m² | - |
| 1777814304 | 8.33° C | 64% | 1011.4 hPa | 0 mm | - | 334 W/m² | - |
| 1777814000 | 8.89° C | 67% | 1011.4 hPa | 0 mm | - | 461 W/m² | - |
* Rain latest hour (hover to see other rain measurements)
** Current wind speed in m/s (hover to see current wind gust speed)